Time_in_sec,gx,gy,gz
1314271325.20048952,0.01829012,0.12757564,-0.99166019
1314271325.24860811,0.01849592,0.12764703,-0.99164718
1314271325.30046821,0.01837164,0.12770412,-0.99164214
1314271325.34853101,0.01819273,0.12758349,-0.99166097
1314271325.40129185,0.01825702,0.12773619,-0.99164013
1314271325.44849658,0.01842487,0.12777113,-0.99163252
1314271325.50091648,0.01825993,0.12772458,-0.99164157
1314271325.55002475,0.01845977,0.12783056,-0.99162422
1314271325.60105538,0.01856968,0.12756317,-0.99165660
1314271325.64852643,0.01846872,0.12768902,-0.99164228
1314271325.69797802,0.01861782,0.12768042,-0.99164060
1314271325.74961209,0.01856704,0.12784440,-0.99162043
1314271325.80129766,0.01839455,0.12792733,-0.99161295
1314271325.84867764,0.01829432,0.12776050,-0.99163631
1314271325.90151381,0.01837705,0.12755930,-0.99166068
1314271325.94845986,0.01851833,0.12746821,-0.99166977
1314271326.00051713,0.01853863,0.12740990,-0.99167688
1314271326.04962254,0.01861664,0.12750712,-0.99166292
1314271326.09771800,0.01841127,0.12758926,-0.99165619
1314271326.14960623,0.01840912,0.12768152,-0.99164436
1314271326.20078731,0.01828022,0.12744097,-0.99167769
1314271326.24850249,0.01810144,0.12751666,-0.99167123
1314271326.30048728,0.01823907,0.12749362,-0.99167168
1314271326.34975219,0.01828139,0.12713706,-0.99171667
1314271326.40045810,0.01814797,0.12724917,-0.99170474
1314271326.44962263,0.01809968,0.12719677,-0.99171235
1314271326.49757767,0.01790285,0.12703477,-0.99173669
1314271326.54852891,0.01790310,0.12703587,-0.99173654
1314271326.60131025,0.01855940,0.12716581,-0.99170782
1314271326.65261745,0.01869040,0.12722339,-0.99169798
1314271326.69761181,0.01876355,0.12717651,-0.99170261
1314271326.74959064,0.01879996,0.12718689,-0.99170059
1314271326.80062461,0.01865941,0.12718910,-0.99170296
1314271326.84878635,0.01896801,0.12719588,-0.99169624
1314271326.90173531,0.01878902,0.12715471,-0.99170492
1314271326.94959664,0.01869990,0.12716790,-0.99170492
1314271327.00152493,0.01875827,0.12691776,-0.99173586
1314271327.04851055,0.01899467,0.12691980,-0.99173110
1314271327.09848380,0.01903624,0.12724741,-0.99168832
1314271327.14946222,0.01904526,0.12725368,-0.99168734
1314271327.20144510,0.01906908,0.12710588,-0.99170584
1314271327.24856663,0.01910609,0.12727971,-0.99168283
1314271327.30031323,0.01934484,0.12732563,-0.99167231
1314271327.34961271,0.01956306,0.12748513,-0.99164753
1314271327.40048456,0.01985010,0.12752569,-0.99163661
1314271327.44848657,0.01988809,0.12727005,-0.99166869
1314271327.50092602,0.01999959,0.12702848,-0.99169742
1314271327.55012822,0.02003561,0.12683382,-0.99172161
1314271327.58854842,0.02001503,0.12680851,-0.99172526
1314271327.64856291,0.01988527,0.12665284,-0.99174777
1314271327.69816422,0.02000632,0.12643494,-0.99177314
1314271327.74859667,0.02009814,0.12654565,-0.99175716
1314271327.80102086,0.02001557,0.12656653,-0.99175617
1314271327.85001135,0.01981300,0.12665323,-0.99174916
1314271327.90050220,0.01971187,0.12638911,-0.99178487
1314271327.94947553,0.01978083,0.12641874,-0.99177972
1314271328.00053334,0.01991425,0.12670279,-0.99174081
1314271328.04961491,0.02001904,0.12687056,-0.99171725
1314271328.09918332,0.02012718,0.12696103,-0.99170348
1314271328.14854169,0.02010517,0.12707842,-0.99168889
1314271328.20049977,0.02011787,0.12716275,-0.99167782
1314271328.25264168,0.01995668,0.12687001,-0.99171858
1314271328.30059481,0.01997738,0.12675182,-0.99173327
1314271328.34845781,0.01990833,0.12681913,-0.99172605
1314271328.40047216,0.01988604,0.12644124,-0.99177475
1314271328.44962382,0.01988947,0.12655499,-0.99176017
1314271328.49801207,0.02001838,0.12648692,-0.99176626
1314271328.54912400,0.02005723,0.12631802,-0.99178701
1314271328.60128236,0.02023368,0.12627587,-0.99178879
1314271328.64845872,0.02035429,0.12595951,-0.99182655
1314271328.70131493,0.02039591,0.12580652,-0.99184511
1314271328.74953198,0.02036165,0.12573474,-0.99185492
1314271328.79248023,0.02037334,0.12571318,-0.99185741
1314271328.84902263,0.02036779,0.12561672,-0.99186975
1314271328.89786649,0.02018568,0.12567821,-0.99186568
1314271328.94951391,0.01988782,0.12600853,-0.99182979
1314271329.00160646,0.02018220,0.12588012,-0.99184015
1314271329.04969001,0.02014164,0.12570879,-0.99186270
1314271329.10058618,0.02025259,0.12559364,-0.99187503
1314271329.14951849,0.02020383,0.12540729,-0.99189960
1314271329.20113730,0.01995427,0.12567731,-0.99187048
1314271329.24847770,0.01991648,0.12558452,-0.99188299
1314271329.30174923,0.01982838,0.12559164,-0.99188385
1314271329.34859228,0.01965927,0.12561078,-0.99188479
1314271329.40158582,0.01957297,0.12573107,-0.99187126
1314271329.44848108,0.01950433,0.12579386,-0.99186465
1314271329.49761510,0.01955819,0.12559128,-0.99188926
1314271329.54964638,0.01956424,0.12568853,-0.99187682
1314271329.60046053,0.01957890,0.12558514,-0.99188963
1314271329.64853215,0.01961334,0.12556362,-0.99189167
1314271329.69811821,0.01990130,0.12559601,-0.99188184
1314271329.74960303,0.01972831,0.12574815,-0.99186602
1314271329.80061126,0.01976301,0.12581011,-0.99185747
1314271329.84977984,0.01933782,0.12605750,-0.99183444
1314271329.90135288,0.01955248,0.12596579,-0.99184188
1314271329.94849324,0.01978719,0.12579813,-0.99185851
1314271330.00051498,0.01987944,0.12558909,-0.99188315
1314271330.04860973,0.01986427,0.12562802,-0.99187853
1314271330.10146117,0.01979342,0.12540283,-0.99190844
1314271330.14959288,0.01982958,0.12523175,-0.99192933
1314271330.20048904,0.01950069,0.12530232,-0.99192694
1314271330.25258183,0.01944184,0.12520094,-0.99194089
1314271330.30119157,0.01911556,0.12524658,-0.99194147
1314271330.34996319,0.01888994,0.12513910,-0.99195936
1314271330.40044808,0.01891225,0.12552000,-0.99191081
1314271330.44860601,0.01908371,0.12526522,-0.99193973
1314271330.49831533,0.01921768,0.12520980,-0.99194415
1314271330.54848123,0.01903404,0.12503291,-0.99197000
1314271330.60052013,0.01870981,0.12512150,-0.99196500
1314271330.64850593,0.01849699,0.12524377,-0.99195356
1314271330.68986201,0.01829674,0.12527922,-0.99195279
1314271330.75015640,0.01832483,0.12540211,-0.99193675
1314271330.80141735,0.01815480,0.12502018,-0.99198808
1314271330.84848166,0.01797353,0.12509280,-0.99198223
1314271330.89918709,0.01798579,0.12516904,-0.99197239
1314271330.94949007,0.01808974,0.12506766,-0.99198329
1314271331.00046253,0.01815395,0.12505346,-0.99198390
1314271331.04848099,0.01781493,0.12504487,-0.99199113
1314271331.10154676,0.01807258,0.12497700,-0.99199503
1314271331.15007663,0.01803743,0.12501713,-0.99199061
1314271331.20049453,0.01805416,0.12470562,-0.99202951
1314271331.24960732,0.01823783,0.12488953,-0.99200302
1314271331.28984976,0.01848761,0.12460434,-0.99203426
1314271331.34960294,0.01843490,0.12464219,-0.99203048
1314271331.40163493,0.01845008,0.12460098,-0.99203538
1314271331.44846559,0.01829749,0.12474129,-0.99202057
1314271331.50146365,0.01827970,0.12471315,-0.99202444
1314271331.54993558,0.01815463,0.12464951,-0.99203473
1314271331.60044765,0.01818269,0.12465517,-0.99203351
1314271331.64952850,0.01795110,0.12433425,-0.99207800
1314271331.69788837,0.01818828,0.12419179,-0.99209152
1314271331.74961162,0.01814419,0.12405625,-0.99210929
1314271331.80043793,0.01793388,0.12396678,-0.99212429
1314271331.84847999,0.01775323,0.12403947,-0.99211846
1314271331.90132284,0.01789917,0.12411073,-0.99210692
1314271331.94847393,0.01761223,0.12442254,-0.99207300
1314271331.99779630,0.01735768,0.12461497,-0.99205334
1314271332.04992366,0.01737916,0.12462158,-0.99205213
1314271332.10075259,0.01747674,0.12481322,-0.99202632
1314271332.14859176,0.01750084,0.12497844,-0.99200510
1314271332.20050931,0.01742543,0.12522819,-0.99197493
1314271332.24845958,0.01753448,0.12520524,-0.99197590
1314271332.30060434,0.01757462,0.12493460,-0.99200931
1314271332.34971380,0.01740637,0.12495661,-0.99200951
1314271332.39247298,0.01730842,0.12498274,-0.99200793
1314271332.44846845,0.01725815,0.12519081,-0.99198257
1314271332.49762774,0.01719693,0.12502357,-0.99200472
1314271332.54846859,0.01713318,0.12501298,-0.99200716
1314271332.60176396,0.01709937,0.12492717,-0.99201856
1314271332.64763260,0.01700797,0.12460988,-0.99206003
1314271332.69750834,0.01703613,0.12459284,-0.99206169
1314271332.74952269,0.01730145,0.12475005,-0.99203734
1314271332.80061483,0.01736348,0.12450098,-0.99206755
1314271332.84861135,0.01709142,0.12449558,-0.99207295
1314271332.90151119,0.01703233,0.12437684,-0.99208886
1314271332.95249152,0.01685301,0.12419926,-0.99211417
1314271333.00061560,0.01668171,0.12387954,-0.99215703
1314271333.04855800,0.01706738,0.12377296,-0.99216378
1314271333.10051680,0.01712796,0.12387590,-0.99214988
1314271333.14990664,0.01724171,0.12381788,-0.99215516
1314271333.20046949,0.01729704,0.12385308,-0.99214980
1314271333.24847412,0.01728312,0.12394833,-0.99213815
1314271333.30175185,0.01713566,0.12379230,-0.99216019
1314271333.34851599,0.01722027,0.12376976,-0.99216153
1314271333.40182519,0.01746703,0.12363623,-0.99217387
1314271333.44849372,0.01724994,0.12364884,-0.99217609
1314271333.50116038,0.01724367,0.12333296,-0.99221552
1314271333.55024695,0.01724636,0.12342501,-0.99220403
1314271333.60048437,0.01686425,0.12329247,-0.99222707
1314271333.64852691,0.01684699,0.12328761,-0.99222797
1314271333.69821024,0.01697694,0.12329528,-0.99222480
1314271333.74960399,0.01716621,0.12320529,-0.99223272
1314271333.80150747,0.01729455,0.12310242,-0.99224326
1314271333.84851933,0.01705416,0.12312869,-0.99224416
1314271333.90098476,0.01714189,0.12327260,-0.99222478
1314271333.95244431,0.01730438,0.12364948,-0.99217507
1314271333.99809694,0.01720417,0.12350051,-0.99219536
1314271334.04960465,0.01684992,0.12356016,-0.99219402
1314271334.09807134,0.01650820,0.12337997,-0.99222218
1314271334.14950466,0.01649658,0.12346795,-0.99221143
1314271334.20119238,0.01637614,0.12340645,-0.99222108
1314271334.24822593,0.01637194,0.12336052,-0.99222686
1314271334.30149388,0.01644075,0.12347252,-0.99221179
1314271334.34996676,0.01613309,0.12346276,-0.99221806
1314271334.38849163,0.01599701,0.12349433,-0.99221633
1314271334.44860005,0.01593620,0.12362911,-0.99220052
1314271334.48846769,0.01593948,0.12337089,-0.99223261
1314271334.54860091,0.01587773,0.12342107,-0.99222736
1314271334.60152721,0.01589438,0.12333380,-0.99223795
1314271334.64848185,0.01601856,0.12353898,-0.99221042
1314271334.70057392,0.01593870,0.12342833,-0.99222548
1314271334.74994969,0.01580578,0.12324547,-0.99225034
1314271334.80056047,0.01586791,0.12304452,-0.99227428
1314271334.84948373,0.01576791,0.12299173,-0.99228242
1314271334.89779449,0.01573161,0.12273142,-0.99231523
1314271334.95130634,0.01579116,0.12278625,-0.99230750
1314271335.00156045,0.01576263,0.12281589,-0.99230429
1314271335.05251241,0.01559753,0.12279815,-0.99230909
1314271335.10152030,0.01551954,0.12293063,-0.99229391
1314271335.14847684,0.01547372,0.12298369,-0.99228805
1314271335.18869019,0.01538730,0.12273814,-0.99231980
1314271335.24859142,0.01533675,0.12257070,-0.99234128
1314271335.29765368,0.01531550,0.12237431,-0.99236584
1314271335.34848166,0.01530023,0.12255079,-0.99234430
1314271335.40136552,0.01542064,0.12247842,-0.99235137
1314271335.44851542,0.01553319,0.12272345,-0.99231934
1314271335.50138426,0.01558802,0.12278462,-0.99231091
1314271335.54967952,0.01589709,0.12274155,-0.99231134
1314271335.60066271,0.01576619,0.12284338,-0.99230083
1314271335.64859843,0.01580685,0.12276483,-0.99230990
1314271335.69763899,0.01574509,0.12289769,-0.99229444
1314271335.74958920,0.01561702,0.12272425,-0.99231793
1314271335.79759240,0.01549249,0.12244256,-0.99235468
1314271335.84852052,0.01552607,0.12244636,-0.99235368
1314271335.90144348,0.01557030,0.12229423,-0.99237175
1314271335.94850492,0.01534017,0.12239727,-0.99236263
1314271336.00128102,0.01532940,0.12267437,-0.99232858
1314271336.04954553,0.01534002,0.12226529,-0.99237890
1314271336.09837651,0.01518191,0.12223286,-0.99238533
1314271336.14846492,0.01521642,0.12214873,-0.99239516
1314271336.20096707,0.01529621,0.12220678,-0.99238678
1314271336.25249934,0.01529611,0.12221443,-0.99238584
1314271336.30239463,0.01513995,0.12242767,-0.99236195
1314271336.34845853,0.01520034,0.12273655,-0.99232288
1314271336.39862919,0.01513412,0.12254536,-0.99234752
1314271336.44848657,0.01522298,0.12252266,-0.99234896
1314271336.49823546,0.01502572,0.12254789,-0.99234885
1314271336.54960775,0.01503755,0.12249253,-0.99235551
1314271336.60113454,0.01538405,0.12271309,-0.99232295
1314271336.64869332,0.01515670,0.12293926,-0.99229845
1314271336.70147848,0.01498487,0.12266046,-0.99233556
1314271336.75020289,0.01490711,0.12273985,-0.99232692
1314271336.80070424,0.01489162,0.12270446,-0.99233153
1314271336.84846210,0.01499733,0.12262586,-0.99233965
1314271336.89808702,0.01503590,0.12244733,-0.99236111
1314271336.94856954,0.01533941,0.12228164,-0.99237690
1314271337.00147867,0.01562721,0.12226129,-0.99237491
1314271337.05250478,0.01545329,0.12224791,-0.99237928
1314271337.10132694,0.01534452,0.12235737,-0.99236748
1314271337.14973688,0.01548911,0.12228485,-0.99237418
1314271337.20136929,0.01548503,0.12218650,-0.99238635
1314271337.24847722,0.01547922,0.12190748,-0.99242076
1314271337.29273844,0.01538255,0.12219134,-0.99238735
1314271337.34989738,0.01517846,0.12230087,-0.99237700
1314271337.40061665,0.01518041,0.12250722,-0.99235152
1314271337.44996738,0.01490439,0.12256363,-0.99234874
1314271337.50061131,0.01480529,0.12231609,-0.99238076
1314271337.54998994,0.01495274,0.12225777,-0.99238574
1314271337.60049367,0.01484313,0.12208620,-0.99240851
1314271337.64858770,0.01487269,0.12216096,-0.99239886
1314271337.69781423,0.01464415,0.12199590,-0.99242257
1314271337.74964881,0.01425541,0.12213530,-0.99241108
1314271337.80059505,0.01419552,0.12219405,-0.99240471
1314271337.84845853,0.01423212,0.12213632,-0.99241129
1314271337.90049386,0.01456931,0.12198906,-0.99242451
1314271337.94847345,0.01449931,0.12198353,-0.99242621
1314271338.00186348,0.01448474,0.12182846,-0.99244547
1314271338.04961729,0.01448013,0.12188984,-0.99243800
1314271338.09768176,0.01448679,0.12176131,-0.99245369
1314271338.14858270,0.01439283,0.12170566,-0.99246188
1314271338.20058799,0.01439101,0.12161379,-0.99247317
1314271338.25253129,0.01418090,0.12147802,-0.99249282
1314271338.30048323,0.01430549,0.12164263,-0.99247087
1314271338.34848285,0.01414453,0.12143724,-0.99249833
1314271338.40054178,0.01435777,0.12155548,-0.99248079
1314271338.44962907,0.01456918,0.12140797,-0.99249576
1314271338.49247217,0.01466516,0.12147743,-0.99248585
1314271338.54847598,0.01462430,0.12145647,-0.99248902
1314271338.60051036,0.01466786,0.12134400,-0.99250213
1314271338.64847374,0.01449669,0.12124926,-0.99251623
1314271338.70083261,0.01437908,0.12114758,-0.99253035
1314271338.75356627,0.01441863,0.12102538,-0.99254469
1314271338.80045986,0.01460826,0.12107616,-0.99253572
1314271338.84954333,0.01442227,0.12072810,-0.99258084
1314271338.90154362,0.01440877,0.12096683,-0.99255197
1314271338.94860816,0.01466943,0.12083804,-0.99256384
1314271339.00060081,0.01472170,0.12098847,-0.99254474
1314271339.05665421,0.01469279,0.12090349,-0.99255552
1314271339.10046744,0.01474950,0.12088740,-0.99255664
1314271339.15043068,0.01474094,0.12097480,-0.99254612
1314271339.20044804,0.01485537,0.12111196,-0.99252769
1314271339.24955058,0.01493311,0.12117004,-0.99251943
1314271339.30159020,0.01484134,0.12138650,-0.99249436
1314271339.34961057,0.01496296,0.12147978,-0.99248112
1314271339.40049911,0.01482935,0.12150374,-0.99248019
1314271339.44948030,0.01472230,0.12165329,-0.99246347
1314271339.50050163,0.01475563,0.12156150,-0.99247422
1314271339.54961276,0.01488668,0.12117208,-0.99251988
1314271339.60160708,0.01500985,0.12087878,-0.99255379
1314271339.64960623,0.01501346,0.12086501,-0.99255541
1314271339.69833350,0.01498311,0.12077896,-0.99256634
1314271339.74852157,0.01503614,0.12089244,-0.99255173
1314271339.80161929,0.01527577,0.12087772,-0.99254986
1314271339.84846354,0.01542504,0.12094339,-0.99253955
1314271339.90046620,0.01552483,0.12107562,-0.99252188
1314271339.95015669,0.01584291,0.12076685,-0.99255447
1314271340.00150299,0.01576893,0.12077222,-0.99255499
1314271340.04858303,0.01592786,0.12061467,-0.99257161
1314271340.10208559,0.01574116,0.12068303,-0.99256628
1314271340.14847636,0.01567310,0.12064678,-0.99257176
1314271340.20058489,0.01563195,0.12038300,-0.99260444
1314271340.24821138,0.01578042,0.12051113,-0.99258654
1314271340.30050802,0.01568252,0.12037267,-0.99260490
1314271340.35004354,0.01598550,0.12034799,-0.99260306
1314271340.40111566,0.01601543,0.12026353,-0.99261281
1314271340.44962478,0.01584068,0.11998139,-0.99264976
1314271340.50474310,0.01585771,0.11981049,-0.99267013
1314271340.54961014,0.01561151,0.11964568,-0.99269391
1314271340.60163188,0.01532378,0.11992452,-0.99266474
1314271340.64850092,0.01531515,0.11985333,-0.99267347
1314271340.70133662,0.01544988,0.11974012,-0.99268505
1314271340.74988151,0.01538811,0.11974796,-0.99268506
1314271340.80054116,0.01553319,0.11960316,-0.99270026
1314271340.84859252,0.01555460,0.11976752,-0.99268011
1314271340.90138078,0.01543206,0.12007970,-0.99264431
1314271340.94858742,0.01541866,0.12021008,-0.99262873
1314271341.00116181,0.01538094,0.12045897,-0.99259915
1314271341.05246592,0.01545492,0.12028677,-0.99261888
1314271341.10147452,0.01541770,0.12014307,-0.99263686
1314271341.14973879,0.01534956,0.12008784,-0.99264460
1314271341.20146799,0.01514822,0.12023779,-0.99262954
1314271341.24845314,0.01524216,0.12015994,-0.99263753
1314271341.30172467,0.01539657,0.11990077,-0.99266649
1314271341.34945631,0.01544930,0.11968666,-0.99269150
1314271341.40120983,0.01552497,0.11950155,-0.99271263
1314271341.45248580,0.01555559,0.11924841,-0.99274259
1314271341.50050998,0.01531204,0.11938577,-0.99272986
1314271341.54959488,0.01518082,0.11933875,-0.99273753
1314271341.60044503,0.01527615,0.11941729,-0.99272662
1314271341.64846039,0.01533673,0.11933956,-0.99273504
1314271341.69759488,0.01516892,0.11934932,-0.99273644
1314271341.75247025,0.01516728,0.11925613,-0.99274767
1314271341.79759645,0.01516711,0.11949653,-0.99271876
1314271341.85260916,0.01532512,0.11929450,-0.99274063
1314271341.90050983,0.01543799,0.11913897,-0.99275756
1314271341.94947124,0.01541975,0.11913079,-0.99275883
1314271342.00150371,0.01535634,0.11902737,-0.99277221
1314271342.04956627,0.01525724,0.11890571,-0.99278832
1314271342.10446954,0.01513678,0.11907379,-0.99277002
1314271342.14844775,0.01489743,0.11911286,-0.99276895
1314271342.20057797,0.01475747,0.11929170,-0.99274957
1314271342.25005841,0.01481626,0.11926502,-0.99275190
1314271342.30048299,0.01454100,0.11955908,-0.99272060
1314271342.34849691,0.01445781,0.11972135,-0.99270226
1314271342.40046883,0.01437014,0.11960686,-0.99271733
1314271342.44849920,0.01420318,0.11965435,-0.99271401
1314271342.49989009,0.01435503,0.11960606,-0.99271764
1314271342.54962063,0.01429637,0.11965158,-0.99271301
1314271342.60049748,0.01426234,0.11956878,-0.99272347
1314271342.65647984,0.01430161,0.11956731,-0.99272308
1314271342.70059133,0.01409987,0.11967419,-0.99271309
1314271342.75018406,0.01415950,0.11971905,-0.99270683
1314271342.80063725,0.01428081,0.11994919,-0.99267731
1314271342.84851027,0.01429070,0.11995239,-0.99267679
1314271342.89819908,0.01406580,0.11995827,-0.99267929
1314271342.95247626,0.01397393,0.11985797,-0.99269270
